Weather Roundup
Issued by NWS Springfield, MO

Home | Current Version | Previous Version | Text Only | Print | Product List | Glossary On
Versions: 1 2 3 4 5 6 7 8 9 10 11 12 13 14 15 16 17 18 19 20 21 22 23 24 25 26 27 28 29 30 31 32 33 34 35 36 37 38 39 40 41 42 43 44 45 46 47 48 49 50
000
NZUS99 KSGF 190359
HRRSGF

HOURLY WEATHER
NATIONAL WEATHER SERVICE SPRINGFIELD MO
1100 PM CDT SAT APR 18 2015

......SGF CWA......

CITY           SKY/WX    TMP DP  RH WIND       PRES   REMARKS
SPRINGFIELD    CLEAR     56  54  93 CALM      29.82F
JOPLIN         PTCLDY    61  57  87 E7        29.80F
WEST PLAINS    PTCLDY    63  56  78 CALM      29.84F
ROLLA          PTCLDY    59  56  89 E5        29.83F
OSAGE BEACH    PTCLDY    55  54  94 CALM      29.83F VSB 1
BRANSON        CLEAR     59  57  94 CALM      29.83F

......SURROUNDING SGF CWA......

CITY           SKY/WX    TMP DP  RH WIND       PRES   REMARKS
CHANUTE        MOCLDY    60  58  92 E6        29.79F
PARSONS        MOCLDY    62  60  93 CALM      29.80S
COFFEYVILLE    CLOUDY    62  60  93 E3        29.79R
EMPORIA        LGT RAIN  54  51  90 NW13      29.84F
SILOAM SPRINGS PTCLDY    61  54  77 SE7       29.83S
HARRISON AR    FOG       58  58 100 CALM      29.83F VSB 1/4
NEAR YELLVILLE MOCLDY    61 N/A N/A CALM      29.81S

......KANSAS AND MISSOURI......

CITY           SKY/WX    TMP DP  RH WIND       PRES   REMARKS
KANSAS CTY INT MOCLDY    58  56  93 E6        29.82F
DOWNTOWN KC    MOCLDY    60  57  89 NE3       29.81F
COLUMBIA       PTCLDY    61  54  77 E5        29.83F
SEDALIA        PTCLDY    60  58  92 CALM      29.84F FOG
ST JOSEPH      PTCLDY    58  56  93 SE3       29.82F
ST LOUIS       MOCLDY    67  57  70 E5        29.85F
SPIRIT OF STL  MOCLDY    65  57  75 E3        29.83F
KIRKSVILLE     CLOUDY    60  59  96 SE8       29.87R
WICHITA        TSTM      57  51  80 S9        29.83R
TOPEKA         CLOUDY    58  52  80 W9        29.83S
OLATHE         MOCLDY    59  57  93 E3        29.81F

......TENNESSEE......

CITY           SKY/WX    TMP DP  RH WIND       PRES   REMARKS
MEMPHIS        CLOUDY    67  62  84 SE7       29.80F
NASHVILLE      CLOUDY    65  63  93 S3        29.87F

......ARKANSAS.......

CITY           SKY/WX    TMP DP  RH WIND       PRES   REMARKS
FAYETTEVILLE   CLEAR     57  56  96 CALM      29.82F
FT SMITH       PTCLDY    64  60  87 CALM      29.80S
LITTLE ROCK    CLOUDY    66  62  87 CALM      29.81F

......OKLAHOMA.......

CITY           SKY/WX    TMP DP  RH WIND       PRES   REMARKS
TULSA          CLOUDY    68  61  78 S8        29.77S
PONCA CITY     CLOUDY    67  57  70 NW3       29.79R
MCALESTER      MOCLDY    67  60  78 S6        29.79S
OKLAHOMA CITY  CLOUDY    60  52  74 SE8       29.74F

......IOWA............

CITY           SKY/WX    TMP DP  RH WIND       PRES   REMARKS
DES MOINES     CLOUDY    61  58  90 SE8       29.82S
QUAD CITIES    MOCLDY    60  45  57 E12       29.89F

......ILLINOIS........

CITY           SKY/WX    TMP DP  RH WIND       PRES   REMARKS
QUINCY         TSTM      64  57  78 W10       29.86F
CHICAGO        CLOUDY    49  34  56 NE8       29.99F




USA.gov is the U.S. government's official web portal to all federal, state and local government web resources and services.